Time,TemperatureF,DewpointF,PressureIn,WindDirection,WindDirectionDegrees,WindSpeedMPH,WindSpeedGustMPH,Humidity,HourlyPrecipIn,Conditions,Clouds,dailyrainin,SolarRadiationWatts/m^2,SoftwareType,DateUTC
2013-04-14 00:12:00,73.0,40.0,-100.00,South,184,7.0,15.0,30,0.00,,,0.00,0.000000,,2013-04-14 07:12:00,
2013-04-14 00:22:00,73.0,40.0,-100.00,South,184,7.0,15.0,30,0.00,,,0.00,0.000000,,2013-04-14 07:22:00,
2013-04-14 00:32:00,73.0,40.0,-100.00,South,184,7.0,15.0,30,0.00,,,0.00,0.000000,,2013-04-14 07:32:00,
2013-04-14 00:42:00,73.0,40.0,-100.00,South,184,7.0,15.0,30,0.00,,,0.00,0.000000,,2013-04-14 07:42:00,
2013-04-14 01:12:00,72.0,41.0,-100.00,SSE,159,12.0,17.0,33,0.00,,,0.00,0.000000,,2013-04-14 08:12:00,
2013-04-14 01:22:00,72.0,41.0,-100.00,SSE,159,12.0,17.0,33,0.00,,,0.00,0.000000,,2013-04-14 08:22:00,
2013-04-14 01:32:00,72.0,41.0,-100.00,SSE,159,12.0,17.0,33,0.00,,,0.00,0.000000,,2013-04-14 08:32:00,
2013-04-14 01:42:00,72.0,41.0,-100.00,SSE,159,12.0,17.0,33,0.00,,,0.00,0.000000,,2013-04-14 08:42:00,
2013-04-14 02:12:00,69.0,42.0,-100.00,SSE,156,12.0,18.0,38,0.00,,,0.00,0.000000,,2013-04-14 09:12:00,
2013-04-14 02:22:00,69.0,42.0,-100.00,SSE,156,12.0,18.0,38,0.00,,,0.00,0.000000,,2013-04-14 09:22:00,
2013-04-14 02:32:00,69.0,42.0,-100.00,SSE,156,12.0,18.0,38,0.00,,,0.00,0.000000,,2013-04-14 09:32:00,
2013-04-14 02:42:00,69.0,42.0,-100.00,SSE,156,12.0,18.0,38,0.00,,,0.00,0.000000,,2013-04-14 09:42:00,
2013-04-14 03:12:00,69.0,44.0,-100.00,SSE,149,10.0,15.0,40,0.00,,,0.00,0.000000,,2013-04-14 10:12:00,
2013-04-14 03:22:00,69.0,44.0,-100.00,SSE,149,10.0,15.0,40,0.00,,,0.00,0.000000,,2013-04-14 10:22:00,
2013-04-14 03:32:00,69.0,44.0,-100.00,SSE,149,10.0,15.0,40,0.00,,,0.00,0.000000,,2013-04-14 10:32:00,
2013-04-14 03:42:00,69.0,44.0,-100.00,SSE,149,10.0,15.0,40,0.00,,,0.00,0.000000,,2013-04-14 10:42:00,
2013-04-14 04:12:00,66.0,38.0,-100.00,SSE,160,5.0,13.0,36,0.00,,,0.00,0.000000,,2013-04-14 11:12:00,
2013-04-14 04:22:00,66.0,38.0,-100.00,SSE,160,5.0,13.0,36,0.00,,,0.00,0.000000,,2013-04-14 11:22:00,
2013-04-14 04:32:00,66.0,38.0,-100.00,SSE,160,5.0,13.0,36,0.00,,,0.00,0.000000,,2013-04-14 11:32:00,
2013-04-14 04:42:00,66.0,38.0,-100.00,SSE,160,5.0,13.0,36,0.00,,,0.00,0.000000,,2013-04-14 11:42:00,
2013-04-14 05:12:00,64.0,43.0,-100.00,SSE,153,5.0,9.0,47,0.00,,,0.00,0.000000,,2013-04-14 12:12:00,
2013-04-14 05:21:00,64.0,43.0,-100.00,SSE,153,5.0,9.0,47,0.00,,,0.00,0.000000,,2013-04-14 12:21:00,
2013-04-14 05:32:00,64.0,43.0,-100.00,SSE,153,5.0,9.0,47,0.00,,,0.00,0.000000,,2013-04-14 12:32:00,
2013-04-14 05:42:00,64.0,43.0,-100.00,SSE,153,5.0,9.0,47,0.00,,,0.00,0.000000,,2013-04-14 12:42:00,
2013-04-14 06:12:00,61.0,42.0,-100.00,SE,142,6.0,8.0,50,0.00,,,0.00,0.000000,,2013-04-14 13:12:00,
2013-04-14 06:22:00,61.0,42.0,-100.00,SE,142,6.0,8.0,50,0.00,,,0.00,0.000000,,2013-04-14 13:22:00,
2013-04-14 06:32:00,61.0,42.0,-100.00,SE,142,6.0,8.0,50,0.00,,,0.00,0.000000,,2013-04-14 13:32:00,
2013-04-14 06:42:00,61.0,42.0,-100.00,SE,142,6.0,8.0,50,0.00,,,0.00,0.000000,,2013-04-14 13:42:00,
2013-04-14 07:12:00,63.0,40.0,-100.00,SE,138,7.0,10.0,43,0.00,,,0.00,32.000000,,2013-04-14 14:12:00,
2013-04-14 07:22:00,63.0,40.0,-100.00,SE,138,7.0,10.0,43,0.00,,,0.00,32.000000,,2013-04-14 14:22:00,
2013-04-14 07:32:00,63.0,40.0,-100.00,SE,138,7.0,10.0,43,0.00,,,0.00,32.000000,,2013-04-14 14:32:00,
2013-04-14 07:42:00,63.0,40.0,-100.00,SE,138,7.0,10.0,43,0.00,,,0.00,32.000000,,2013-04-14 14:42:00,
2013-04-14 08:12:00,71.0,40.0,-100.00,SE,146,8.0,12.0,33,0.00,,,0.00,240.000000,,2013-04-14 15:12:00,
2013-04-14 08:22:00,71.0,40.0,-100.00,SE,146,8.0,12.0,33,0.00,,,0.00,240.000000,,2013-04-14 15:22:00,
2013-04-14 08:33:00,71.0,40.0,-100.00,SE,146,8.0,12.0,33,0.00,,,0.00,240.000000,,2013-04-14 15:33:00,
2013-04-14 08:43:00,71.0,40.0,-100.00,SE,146,8.0,12.0,33,0.00,,,0.00,240.000000,,2013-04-14 15:43:00,
2013-04-14 09:13:00,75.0,45.0,-100.00,SSE,163,12.0,18.0,34,0.00,,,0.00,487.000000,,2013-04-14 16:13:00,
2013-04-14 09:22:00,75.0,45.0,-100.00,SSE,163,12.0,18.0,34,0.00,,,0.00,487.000000,,2013-04-14 16:22:00,
2013-04-14 09:32:00,75.0,45.0,-100.00,SSE,163,12.0,18.0,34,0.00,,,0.00,487.000000,,2013-04-14 16:32:00,
2013-04-14 09:43:00,75.0,45.0,-100.00,SSE,163,12.0,18.0,34,0.00,,,0.00,487.000000,,2013-04-14 16:43:00,
2013-04-14 10:12:00,78.0,44.0,-100.00,SSE,157,11.0,19.0,30,0.00,,,0.00,718.000000,,2013-04-14 17:12:00,
2013-04-14 10:22:00,78.0,44.0,-100.00,SSE,157,11.0,19.0,30,0.00,,,0.00,718.000000,,2013-04-14 17:22:00,
2013-04-14 10:32:00,78.0,44.0,-100.00,SSE,157,11.0,19.0,30,0.00,,,0.00,718.000000,,2013-04-14 17:32:00,
2013-04-14 10:42:00,78.0,44.0,-100.00,SSE,157,11.0,19.0,30,0.00,,,0.00,718.000000,,2013-04-14 17:42:00,
2013-04-14 11:12:00,83.0,42.0,-100.00,SSE,160,8.0,16.0,24,0.00,,,0.00,907.000000,,2013-04-14 18:12:00,
2013-04-14 11:22:00,83.0,42.0,-100.00,SSE,160,8.0,16.0,24,0.00,,,0.00,907.000000,,2013-04-14 18:22:00,
2013-04-14 11:32:00,83.0,42.0,-100.00,SSE,160,8.0,16.0,24,0.00,,,0.00,907.000000,,2013-04-14 18:32:00,
2013-04-14 11:42:00,83.0,42.0,-100.00,SSE,160,8.0,16.0,24,0.00,,,0.00,907.000000,,2013-04-14 18:42:00,
2013-04-14 12:12:00,85.0,41.0,-100.00,South,181,10.0,18.0,21,0.00,,,0.00,1036.000000,,2013-04-14 19:12:00,
2013-04-14 12:22:00,85.0,41.0,-100.00,South,181,10.0,18.0,21,0.00,,,0.00,1036.000000,,2013-04-14 19:22:00,
2013-04-14 12:32:00,85.0,41.0,-100.00,South,181,10.0,18.0,21,0.00,,,0.00,1036.000000,,2013-04-14 19:32:00,
2013-04-14 12:42:00,85.0,41.0,-100.00,South,181,10.0,18.0,21,0.00,,,0.00,1036.000000,,2013-04-14 19:42:00,
2013-04-14 13:12:00,87.0,38.0,-100.00,SSW,211,8.0,17.0,18,0.00,,,0.00,1086.000000,,2013-04-14 20:12:00,
2013-04-14 13:22:00,87.0,38.0,-100.00,SSW,211,8.0,17.0,18,0.00,,,0.00,1086.000000,,2013-04-14 20:22:00,
2013-04-14 13:32:00,87.0,38.0,-100.00,SSW,211,8.0,17.0,18,0.00,,,0.00,1086.000000,,2013-04-14 20:32:00,
2013-04-14 13:42:00,87.0,38.0,-100.00,SSW,211,8.0,17.0,18,0.00,,,0.00,1086.000000,,2013-04-14 20:42:00,
2013-04-14 14:12:00,89.0,38.0,-100.00,SW,217,11.0,16.0,17,0.00,,,-99.99,1067.000000,,2013-04-14 21:12:00,
2013-04-14 14:22:00,89.0,38.0,-100.00,SW,217,11.0,16.0,17,0.00,,,-99.99,1067.000000,,2013-04-14 21:22:00,
2013-04-14 14:33:00,89.0,38.0,-100.00,SW,217,11.0,16.0,17,0.00,,,-99.99,1067.000000,,2013-04-14 21:33:00,
2013-04-14 14:43:00,89.0,38.0,-100.00,SW,217,11.0,16.0,17,0.00,,,-99.99,1067.000000,,2013-04-14 21:43:00,
2013-04-14 15:12:00,90.0,41.0,-100.00,SW,214,11.0,19.0,18,0.00,,,0.00,981.000000,,2013-04-14 22:12:00,
2013-04-14 15:23:00,90.0,41.0,-100.00,SW,214,11.0,19.0,18,0.00,,,0.00,981.000000,,2013-04-14 22:23:00,
2013-04-14 15:32:00,90.0,41.0,-100.00,SW,214,11.0,19.0,18,0.00,,,0.00,981.000000,,2013-04-14 22:32:00,
2013-04-14 15:43:00,90.0,41.0,-100.00,SW,214,11.0,19.0,18,0.00,,,0.00,981.000000,,2013-04-14 22:43:00,
2013-04-14 16:12:00,89.0,38.0,-100.00,SSW,208,13.0,20.0,17,0.00,,,0.00,818.000000,,2013-04-14 23:12:00,
2013-04-14 16:22:00,89.0,38.0,-100.00,SSW,208,13.0,20.0,17,0.00,,,0.00,818.000000,,2013-04-14 23:22:00,
2013-04-14 16:32:00,89.0,38.0,-100.00,SSW,208,13.0,20.0,17,0.00,,,0.00,818.000000,,2013-04-14 23:32:00,
2013-04-14 16:42:00,89.0,38.0,-100.00,SSW,208,13.0,20.0,17,0.00,,,0.00,818.000000,,2013-04-14 23:42:00,
2013-04-14 17:12:00,89.0,38.0,-100.00,SW,214,13.0,21.0,17,0.00,,,0.00,603.000000,,2013-04-15 00:12:00,
2013-04-14 17:22:00,89.0,38.0,-100.00,SW,214,13.0,21.0,17,0.00,,,0.00,603.000000,,2013-04-15 00:22:00,
2013-04-14 17:32:00,89.0,38.0,-100.00,SW,214,13.0,21.0,17,0.00,,,0.00,603.000000,,2013-04-15 00:32:00,
2013-04-14 17:42:00,89.0,38.0,-100.00,SW,214,13.0,21.0,17,0.00,,,0.00,603.000000,,2013-04-15 00:42:00,
2013-04-14 18:12:00,88.0,41.0,-100.00,SW,215,12.0,20.0,19,0.00,,,0.00,361.000000,,2013-04-15 01:12:00,
2013-04-14 18:22:00,88.0,41.0,-100.00,SW,215,12.0,20.0,19,0.00,,,0.00,361.000000,,2013-04-15 01:22:00,
2013-04-14 18:32:00,88.0,41.0,-100.00,SW,215,12.0,20.0,19,0.00,,,0.00,361.000000,,2013-04-15 01:32:00,
2013-04-14 18:42:00,88.0,41.0,-100.00,SW,215,12.0,20.0,19,0.00,,,0.00,361.000000,,2013-04-15 01:42:00,
2013-04-14 19:12:00,86.0,40.0,-100.00,SSW,208,10.0,19.0,20,0.00,,,0.00,126.000000,,2013-04-15 02:12:00,
2013-04-14 19:22:00,86.0,40.0,-100.00,SSW,208,10.0,19.0,20,0.00,,,0.00,126.000000,,2013-04-15 02:22:00,
2013-04-14 19:32:00,86.0,40.0,-100.00,SSW,208,10.0,19.0,20,0.00,,,0.00,126.000000,,2013-04-15 02:32:00,
2013-04-14 19:42:00,86.0,40.0,-100.00,SSW,208,10.0,19.0,20,0.00,,,0.00,126.000000,,2013-04-15 02:42:00,
2013-04-14 20:12:00,80.0,44.0,-100.00,SSE,163,14.0,22.0,28,0.00,,,0.00,6.000000,,2013-04-15 03:12:00,
2013-04-14 20:22:00,80.0,44.0,-100.00,SSE,163,14.0,22.0,28,0.00,,,0.00,6.000000,,2013-04-15 03:22:00,
2013-04-14 20:32:00,80.0,44.0,-100.00,SSE,163,14.0,22.0,28,0.00,,,0.00,6.000000,,2013-04-15 03:32:00,
2013-04-14 20:43:00,80.0,44.0,-100.00,SSE,163,14.0,22.0,28,0.00,,,0.00,6.000000,,2013-04-15 03:43:00,
2013-04-14 21:13:00,77.0,46.0,-100.00,SSE,165,12.0,21.0,33,0.00,,,0.00,0.000000,,2013-04-15 04:13:00,
2013-04-14 21:22:00,77.0,46.0,-100.00,SSE,165,12.0,21.0,33,0.00,,,0.00,0.000000,,2013-04-15 04:22:00,
2013-04-14 21:33:00,77.0,46.0,-100.00,SSE,165,12.0,21.0,33,0.00,,,0.00,0.000000,,2013-04-15 04:33:00,
2013-04-14 21:42:00,77.0,46.0,-100.00,SSE,165,12.0,21.0,33,0.00,,,0.00,0.000000,,2013-04-15 04:42:00,
2013-04-14 22:12:00,74.0,44.0,-100.00,South,187,13.0,21.0,34,0.00,,,0.00,0.000000,,2013-04-15 05:12:00,
2013-04-14 22:22:00,74.0,44.0,-100.00,South,187,13.0,21.0,34,0.00,,,0.00,0.000000,,2013-04-15 05:22:00,
2013-04-14 22:32:00,74.0,44.0,-100.00,South,187,13.0,21.0,34,0.00,,,0.00,0.000000,,2013-04-15 05:32:00,
2013-04-14 22:42:00,74.0,44.0,-100.00,South,187,13.0,21.0,34,0.00,,,0.00,0.000000,,2013-04-15 05:42:00,
2013-04-14 23:12:00,71.0,43.0,-100.00,South,191,10.0,18.0,36,0.00,,,0.00,0.000000,,2013-04-15 06:12:00,
2013-04-14 23:22:00,71.0,43.0,-100.00,South,191,10.0,18.0,36,0.00,,,0.00,0.000000,,2013-04-15 06:22:00,
2013-04-14 23:33:00,71.0,43.0,-100.00,South,191,10.0,18.0,36,0.00,,,0.00,0.000000,,2013-04-15 06:33:00,
2013-04-14 23:42:00,71.0,43.0,-100.00,South,191,10.0,18.0,36,0.00,,,0.00,0.000000,,2013-04-15 06:42:00,